Location: Poughquag
(41.6090°N, 73.6820°W)
Time: 03:34:05
(UTC-05:00)

Transit 2A Rocket - Visible Passes

Search period start: 05 December 2023 00:00
Search period end: 15 December 2023 00:00
Orbit: 593 x 903 km, 66.7° (Epoch: 05 December)

Date Brightness Start Highest point End Pass type
(mag) Time Alt. Az. Time Alt. Az. Time Alt. Az.
05 Dec 5.6 05:23:39 15° NNW 05:26:59 42° NE 05:31:19 10° SE visible
06 Dec 6.5 04:41:32 19° NNE 04:43:10 24° NE 04:46:52 10° ESE visible
06 Dec 5.3 06:21:37 10° NW 06:25:41 37° WSW 06:29:58 10° S visible
07 Dec 7.2 03:59:29 15° NE 03:59:29 15° NE 04:01:44 10° ENE visible
07 Dec 4.5 05:39:21 22° NW 05:42:08 74° WSW 05:46:46 10° SSE visible
08 Dec 5.0 04:57:21 43° N 04:58:29 58° ENE 05:03:02 10° SE visible
08 Dec 6.5 06:38:06 10° WNW 06:40:30 14° WSW 06:42:57 10° SW visible
09 Dec 6.3 04:15:26 30° ENE 04:15:26 30° ENE 04:18:51 10° ESE visible
09 Dec 5.7 05:55:17 21° WNW 05:57:05 27° WSW 06:01:00 10° S visible
10 Dec 7.7 03:33:34 12° E 03:33:34 12° E 03:34:05 10° E visible
10 Dec 4.7 05:13:26 52° WSW 05:13:34 52° WSW 05:18:06 10° SSE visible
11 Dec 5.7 04:31:38 39° SE 04:31:38 39° SE 04:34:38 10° SSE visible
11 Dec 6.6 18:59:43 10° SSW 19:01:26 21° S 19:01:26 21° S visible
12 Dec 7.4 03:49:53 14° ESE 03:49:53 14° ESE 03:50:40 10° SE visible
12 Dec 6.4 05:29:46 18° SW 05:29:46 18° SW 05:31:48 10° SSW visible
12 Dec 5.9 18:16:44 10° S 18:19:41 26° SE 18:19:41 26° SE visible
12 Dec 7.6 19:59:08 10° WSW 19:59:34 12° WSW 19:59:34 12° WSW visible
13 Dec 6.7 04:48:03 17° S 04:48:03 17° S 04:49:17 10° S visible
13 Dec 6.3 17:34:35 10° SE 17:37:24 16° ESE 17:37:53 16° E visible
13 Dec 6.1 19:14:52 10° SW 19:17:45 34° WSW 19:17:45 34° WSW visible
14 Dec 4.4 18:31:05 10° SSW 18:35:47 80° ESE 18:35:53 79° E visible
